Regional Weather Roundup
Issued by NWS State College, PA

Home | Current Version | Previous Version | Text Only | Print | Product List | Glossary On
Versions: 1 2 3 4 5 6 7 8 9 10 11 12 13 14 15 16 17 18 19 20 21 22 23 24 25 26 27 28 29 30 31 32 33 34 35 36 37 38 39 40 41 42 43 44 45 46 47 48 49 50
000
ASUS41 KCTP 222103
RWRCTP

REGIONAL WEATHER ROUNDUP
NATIONAL WEATHER SERVICE STATE COLLEGE PA
500 PM EDT MON MAY 22 2017

Note: "fair" indicates few or no clouds below 12,000 feet with no
significant weather and/or obstructions to visibility.

* = STATION THAT DOES NOT REPORT PRECIPITATION /E.G. RAIN...SNOW...ETC/
    THUNDER OR FOG.

PAZ002>004-007>009-013>016-020>023-029>032-222200-
WESTERN PENNSYLVANIA

CITY           SKY/WX    TMP DP  RH WIND       PRES   REMARKS
ERIE           MOSUNNY   60  46  59 W9        30.01F
MEADVILLE      MOSUNNY   61  45  55 SW10      30.02S
FRANKLIN*      MOSUNNY   63  45  51 W13G18    30.02F
NEW CASTLE     FAIR      64  46  52 VRB7      30.04S
BEAVER COUNTY  SUNNY     66  46  48 W10G17    30.03F
BUTLER*        CLOUDY    64  46  52 W8        30.03R
PITTSBURGH INT CLOUDY    66  45  46 W12       30.03S
PITTSBURGH     MOSUNNY   65  45  48 W10G20    30.02S
INDIANA*       NOT AVBL
LATROBE        PTSUNNY   66  48  52 W12G21    30.04R
WASHINGTON CO* PTSUNNY   63  46  55 W9G16     30.05F
$$

PAZ004>006-010>012-017>019-024>028-033>037-041-042-045-046-049>053-222200-
CENTRAL PENNSYLVANIA

CITY           SKY/WX    TMP DP  RH WIND       PRES   REMARKS
BRADFORD       CLOUDY    62  48  60 W10       29.98R
DUBOIS         CLOUDY    63  45  51 W15       29.99R
CLEARFIELD       N/A     67  51  56 W14G21    29.97R
JOHNSTOWN      PTSUNNY   63  49  60 W17G24    30.01R
ALTOONA        CLOUDY    72  51  47 W15       29.97R
STATE COLLEGE  MOSUNNY   73  50  43 W12G18    29.93F
WILLIAMSPORT   CLOUDY    67  58  72 SE8       29.92F
SELINSGROVE    CLOUDY    64  58  80 S8        29.95F
FT INDIANTOWN  CLOUDY    59  59 100 E3        29.97F
CAPITAL CITY   CLOUDY    64  58  80 E5        29.96F
HARRISBURG     CLOUDY    64  60  87 CALM      29.96S
YORK           CLOUDY    66  62  87 E5        29.95F
$$

PAZ038>040-043-044-047-048-054-055-060>062-067>071-222200-
EASTERN PENNSYLVANIA

CITY           SKY/WX    TMP DP  RH WIND       PRES   REMARKS
SCRANTON       CLOUDY    63  55  75 S6        29.96F
MOUNT POCONO   CLOUDY    54  54 100 CALM      29.98F
ALLENTOWN      CLOUDY    60  56  86 NE3       29.98F
QUAKERTOWN*    CLOUDY    61  61 100 CALM      29.98F
READING        CLOUDY    61  59  93 CALM      29.97S
LANCASTER      CLOUDY    63  61  93 CALM      29.97S
COATESVILLE    CLOUDY    63  61  94 CALM      29.99R FOG
POTTSTOWN      CLOUDY    62  60  93 CALM      29.98F
BLUE BELL      CLOUDY    61  61 100 CALM      29.99R
DOYLESTOWN     CLOUDY    61  61 100 VRB3      29.97F
WILLOW GROVE   NOT AVBL
NORTH PHILA    CLOUDY    64  61  90 CALM      29.98S
PHILADELPHIA   CLOUDY    65  62  90 CALM      29.97S
$$



USA.gov is the U.S. government's official web portal to all federal, state and local government web resources and services.